Tracking 23610 objects as of 19-Sep-2021
HD Live streaming from Space Station
objects crossing your sky now

DMSP 5D-2 F13 DEB

Track DMSP 5D-2 F13 DEB now!
10-day predictions


NORAD ID: 40581
Int'l Code: 1995-015EQ
Perigee: 822.3 km
Apogee: 859.5 km
Inclination: 98.8 °
Period: 101.6 minutes
Semi major axis: 7211 km
RCS: Unknown
Launch date: March 24, 1995
Source: United States (US)
Launch site: AIR FORCE WESTERN TEST RANGE (AFWTR)

Note: This is SATELLITE DEBRIS
aabbcc
Your satellite tracking list
Your tracking list is empty




NASA's NSSDC Master Catalog

Two Line Element Set (TLE):
1 40581U 95015EQ  21261.02750708  .00000942  00000-0  48444-3 0  9991
2 40581  98.8209 279.5592 0025801 279.6041  80.2218 14.17519649333759
Source of the keplerian elements: AFSPC